contact:dominique.lefevre@mio.osupytheas.fr, maurice.libes@osupytheas.fr, didier.mallarino@osupytheas.fr
Project:EMSO http://www.emso-fr.org/EMSO-France
Depth: 2436.0 m
Title:EMSO Ligure Ouest : Data MII capteur CSTAR
DateTime,Latitude,Longitude,Instrument_Serial,Reference_Counts,Signal_Counts,Corrected_Signal_raw_counts,Calculated_Beam_c_inverse_meters,Internal_thermistor_counts
DateTime,Latitude,Longitude,Instrument_Serial,Reference_Counts,Signal_Counts,Corrected_Signal_raw_counts,Calculated_Beam_c_inverse_meters,Internal_thermistor_counts
2019-06-16T00:01:11,42.805,6.029,CST-1368DR,9037,12645,15528,0.023,551
2019-06-16T00:04:12,42.805,6.029,CST-1368DR,9037,12644,15527,0.023,551
2019-06-16T00:07:14,42.805,6.029,CST-1368DR,9037,12644,15527,0.023,551
2019-06-16T00:10:16,42.805,6.029,CST-1368DR,9037,12642,15525,0.023,551
2019-06-16T00:13:18,42.805,6.029,CST-1368DR,9037,12642,15525,0.023,551
2019-06-16T00:16:19,42.805,6.029,CST-1368DR,9037,12644,15527,0.023,550
2019-06-16T00:19:21,42.805,6.029,CST-1368DR,9037,12644,15527,0.023,551
2019-06-16T00:22:23,42.805,6.029,CST-1368DR,9037,12643,15526,0.023,551
2019-06-16T00:25:25,42.805,6.029,CST-1368DR,9037,12644,15527,0.023,551
2019-06-16T00:28:27,42.805,6.029,CST-1368DR,9037,12644,15527,0.023,551
2019-06-16T00:31:28,42.805,6.029,CST-1368DR,9036,12645,15530,0.022,551
2019-06-16T00:34:30,42.805,6.029,CST-1368DR,9036,12644,15529,0.022,551
2019-06-16T00:37:32,42.805,6.029,CST-1368DR,9037,12641,15524,0.024,551
2019-06-16T00:40:34,42.805,6.029,CST-1368DR,9037,12643,15527,0.023,551
2019-06-16T00:43:35,42.805,6.029,CST-1368DR,9037,12643,15527,0.023,551
2019-06-16T00:46:37,42.805,6.029,CST-1368DR,9036,12644,15528,0.023,551
2019-06-16T00:49:39,42.805,6.029,CST-1368DR,9036,12644,15529,0.022,551
2019-06-16T00:52:41,42.805,6.029,CST-1368DR,9036,12643,15528,0.023,551
2019-06-16T00:55:43,42.805,6.029,CST-1368DR,9036,12643,15527,0.023,551
2019-06-16T00:58:44,42.805,6.029,CST-1368DR,9036,12643,15528,0.023,551
2019-06-16T01:01:46,42.805,6.029,CST-1368DR,9036,12643,15528,0.023,551
2019-06-16T01:04:48,42.805,6.029,CST-1368DR,9036,12644,15528,0.023,551
2019-06-16T01:07:50,42.805,6.029,CST-1368DR,9036,12643,15528,0.023,551
2019-06-16T01:10:52,42.805,6.029,CST-1368DR,9036,12643,15528,0.023,551
2019-06-16T01:13:54,42.805,6.029,CST-1368DR,9036,12642,15526,0.023,551
2019-06-16T01:16:55,42.805,6.029,CST-1368DR,9036,12643,15527,0.023,551
2019-06-16T01:19:57,42.805,6.029,CST-1368DR,9036,12643,15528,0.023,551
2019-06-16T01:22:59,42.805,6.029,CST-1368DR,9036,12641,15526,0.023,550
2019-06-16T01:26:01,42.805,6.029,CST-1368DR,9036,12643,15528,0.023,551
2019-06-16T01:29:02,42.805,6.029,CST-1368DR,9036,12641,15525,0.023,551
2019-06-16T01:32:04,42.805,6.029,CST-1368DR,9036,12643,15528,0.023,551
2019-06-16T01:35:06,42.805,6.029,CST-1368DR,9036,12643,15528,0.023,551
2019-06-16T01:38:08,42.805,6.029,CST-1368DR,9036,12643,15528,0.023,551
2019-06-16T01:41:09,42.805,6.029,CST-1368DR,9036,12642,15527,0.023,551
2019-06-16T01:44:11,42.805,6.029,CST-1368DR,9036,12640,15524,0.024,551
2019-06-16T01:47:13,42.805,6.029,CST-1368DR,9036,12642,15526,0.023,551
2019-06-16T01:50:15,42.805,6.029,CST-1368DR,9036,12643,15528,0.023,551
2019-06-16T01:53:17,42.805,6.029,CST-1368DR,9036,12642,15526,0.023,551
2019-06-16T01:56:19,42.805,6.029,CST-1368DR,9036,12643,15528,0.023,551
2019-06-16T01:59:20,42.805,6.029,CST-1368DR,9035,12642,15528,0.023,551
2019-06-16T02:02:22,42.805,6.029,CST-1368DR,9036,12643,15528,0.023,551
2019-06-16T02:05:24,42.805,6.029,CST-1368DR,9036,12642,15526,0.023,551
2019-06-16T02:08:26,42.805,6.029,CST-1368DR,9035,12642,15529,0.022,551
2019-06-16T02:11:28,42.805,6.029,CST-1368DR,9036,12643,15528,0.023,551
2019-06-16T02:14:29,42.805,6.029,CST-1368DR,9036,12643,15528,0.023,551
2019-06-16T02:17:31,42.805,6.029,CST-1368DR,9036,12643,15527,0.023,551
2019-06-16T02:20:33,42.805,6.029,CST-1368DR,9036,12643,15527,0.023,551
2019-06-16T02:23:35,42.805,6.029,CST-1368DR,9036,12643,15528,0.023,551
2019-06-16T02:26:36,42.805,6.029,CST-1368DR,9035,12642,15528,0.023,551
2019-06-16T02:29:38,42.805,6.029,CST-1368DR,9035,12643,15529,0.022,551
2019-06-16T02:32:40,42.805,6.029,CST-1368DR,9035,12642,15528,0.023,551
2019-06-16T02:35:42,42.805,6.029,CST-1368DR,9035,12640,15526,0.023,551
2019-06-16T02:38:44,42.805,6.029,CST-1368DR,9035,12643,15529,0.022,551
2019-06-16T02:41:45,42.805,6.029,CST-1368DR,9035,12639,15524,0.024,551
2019-06-16T02:44:47,42.805,6.029,CST-1368DR,9035,12641,15526,0.023,550
2019-06-16T02:47:49,42.805,6.029,CST-1368DR,9035,12642,15528,0.023,551
2019-06-16T02:50:51,42.805,6.029,CST-1368DR,9035,12643,15529,0.022,551
2019-06-16T02:53:52,42.805,6.029,CST-1368DR,9035,12642,15528,0.023,550
2019-06-16T02:56:54,42.805,6.029,CST-1368DR,9035,12641,15527,0.023,551
2019-06-16T02:59:56,42.805,6.029,CST-1368DR,9035,12640,15526,0.023,551
2019-06-16T03:02:58,42.805,6.029,CST-1368DR,9035,12641,15527,0.023,551
2019-06-16T03:06:00,42.805,6.029,CST-1368DR,9035,12641,15527,0.023,551
2019-06-16T03:09:02,42.805,6.029,CST-1368DR,9035,12642,15528,0.023,550
2019-06-16T03:12:03,42.805,6.029,CST-1368DR,9035,12643,15529,0.022,551
2019-06-16T03:15:05,42.805,6.029,CST-1368DR,9035,12641,15527,0.023,551
2019-06-16T03:18:07,42.805,6.029,CST-1368DR,9035,12643,15529,0.022,551
2019-06-16T03:21:09,42.805,6.029,CST-1368DR,9035,12641,15526,0.023,551
2019-06-16T03:24:11,42.805,6.029,CST-1368DR,9035,12641,15527,0.023,551
2019-06-16T03:27:12,42.805,6.029,CST-1368DR,9035,12642,15529,0.022,551
2019-06-16T03:30:14,42.805,6.029,CST-1368DR,9035,12642,15529,0.022,551
2019-06-16T03:33:16,42.805,6.029,CST-1368DR,9035,12640,15526,0.023,550
2019-06-16T03:36:18,42.805,6.029,CST-1368DR,9035,12641,15527,0.023,551
2019-06-16T03:39:19,42.805,6.029,CST-1368DR,9035,12641,15527,0.023,551
2019-06-16T03:42:21,42.805,6.029,CST-1368DR,9035,12641,15527,0.023,551
2019-06-16T03:45:23,42.805,6.029,CST-1368DR,9035,12643,15529,0.022,551
2019-06-16T03:48:25,42.805,6.029,CST-1368DR,9035,12642,15528,0.023,551
2019-06-16T03:51:26,42.805,6.029,CST-1368DR,9035,12640,15526,0.023,551
2019-06-16T03:54:28,42.805,6.029,CST-1368DR,9035,12641,15526,0.023,551
2019-06-16T03:57:30,42.805,6.029,CST-1368DR,9035,12641,15527,0.023,551
2019-06-16T04:00:32,42.805,6.029,CST-1368DR,9035,12641,15527,0.023,551
2019-06-16T04:03:34,42.805,6.029,CST-1368DR,9035,12641,15527,0.023,551
2019-06-16T04:06:36,42.805,6.029,CST-1368DR,9034,12638,15525,0.023,551
2019-06-16T04:09:37,42.805,6.029,CST-1368DR,9034,12644,15532,0.022,551
2019-06-16T04:12:39,42.805,6.029,CST-1368DR,9034,12642,15529,0.022,551
2019-06-16T04:15:41,42.805,6.029,CST-1368DR,9034,12642,15529,0.022,551
2019-06-16T04:18:43,42.805,6.029,CST-1368DR,9034,12641,15528,0.023,551
2019-06-16T04:21:45,42.805,6.029,CST-1368DR,9034,12641,15529,0.022,551
2019-06-16T04:24:46,42.805,6.029,CST-1368DR,9034,12641,15528,0.023,551
2019-06-16T04:27:48,42.805,6.029,CST-1368DR,9034,12637,15523,0.024,551
2019-06-16T04:30:50,42.805,6.029,CST-1368DR,9034,12640,15528,0.023,551
2019-06-16T04:33:52,42.805,6.029,CST-1368DR,9034,12641,15529,0.022,551
2019-06-16T04:36:54,42.805,6.029,CST-1368DR,9034,12641,15528,0.023,551
2019-06-16T04:39:55,42.805,6.029,CST-1368DR,9034,12640,15528,0.023,551
2019-06-16T04:42:57,42.805,6.029,CST-1368DR,9034,12641,15529,0.022,551
2019-06-16T04:45:59,42.805,6.029,CST-1368DR,9034,12640,15527,0.023,551
2019-06-16T04:49:00,42.805,6.029,CST-1368DR,9034,12641,15529,0.022,551
2019-06-16T04:52:02,42.805,6.029,CST-1368DR,9034,12641,15528,0.023,551
2019-06-16T04:55:04,42.805,6.029,CST-1368DR,9034,12640,15527,0.023,551
2019-06-16T04:58:05,42.805,6.029,CST-1368DR,9034,12641,15529,0.022,551
2019-06-16T05:01:07,42.805,6.029,CST-1368DR,9034,12642,15529,0.022,551
2019-06-16T05:04:09,42.805,6.029,CST-1368DR,9034,12640,15528,0.023,551
2019-06-16T05:07:10,42.805,6.029,CST-1368DR,9034,12640,15527,0.023,551
2019-06-16T05:10:12,42.805,6.029,CST-1368DR,9034,12641,15529,0.022,551
2019-06-16T05:13:14,42.805,6.029,CST-1368DR,9034,12640,15527,0.023,551
2019-06-16T05:16:16,42.805,6.029,CST-1368DR,9034,12641,15528,0.023,551
2019-06-16T05:19:17,42.805,6.029,CST-1368DR,9034,12641,15529,0.022,551
2019-06-16T05:22:19,42.805,6.029,CST-1368DR,9034,12639,15526,0.023,550
2019-06-16T05:25:21,42.805,6.029,CST-1368DR,9034,12641,15528,0.023,551
2019-06-16T05:28:22,42.805,6.029,CST-1368DR,9034,12639,15525,0.023,551
2019-06-16T05:31:24,42.805,6.029,CST-1368DR,9034,12640,15527,0.023,550
2019-06-16T05:34:26,42.805,6.029,CST-1368DR,9034,12641,15528,0.023,551
2019-06-16T05:37:27,42.805,6.029,CST-1368DR,9034,12642,15529,0.022,551
2019-06-16T05:40:29,42.805,6.029,CST-1368DR,9034,12641,15529,0.022,551
2019-06-16T05:43:30,42.805,6.029,CST-1368DR,9034,12641,15529,0.022,551
2019-06-16T05:46:32,42.805,6.029,CST-1368DR,9034,12640,15527,0.023,551
2019-06-16T05:49:34,42.805,6.029,CST-1368DR,9033,12641,15530,0.022,551
2019-06-16T05:52:35,42.805,6.029,CST-1368DR,9033,12640,15529,0.022,551
2019-06-16T05:55:37,42.805,6.029,CST-1368DR,9033,12641,15530,0.022,551
2019-06-16T05:58:39,42.805,6.029,CST-1368DR,9034,12640,15527,0.023,550
2019-06-16T06:01:40,42.805,6.029,CST-1368DR,9033,12633,15521,0.024,551
2019-06-16T06:04:42,42.805,6.029,CST-1368DR,9034,12641,15528,0.023,551
2019-06-16T06:07:44,42.805,6.029,CST-1368DR,9034,12641,15528,0.023,551
2019-06-16T06:10:45,42.805,6.029,CST-1368DR,9033,12640,15529,0.022,551
2019-06-16T06:13:47,42.805,6.029,CST-1368DR,9033,12640,15529,0.022,551
2019-06-16T06:16:49,42.805,6.029,CST-1368DR,9033,12640,15529,0.022,551
2019-06-16T06:19:50,42.805,6.029,CST-1368DR,9033,12641,15530,0.022,551
2019-06-16T06:22:52,42.805,6.029,CST-1368DR,9033,12640,15529,0.022,551
2019-06-16T06:25:54,42.805,6.029,CST-1368DR,9033,12641,15530,0.022,550
2019-06-16T06:28:55,42.805,6.029,CST-1368DR,9033,12641,15530,0.022,551
2019-06-16T06:31:57,42.805,6.029,CST-1368DR,9033,12639,15527,0.023,551
2019-06-16T06:34:59,42.805,6.029,CST-1368DR,9033,12640,15529,0.022,551
2019-06-16T06:38:00,42.805,6.029,CST-1368DR,9033,12640,15529,0.022,551
2019-06-16T06:41:02,42.805,6.029,CST-1368DR,9033,12639,15528,0.023,551
2019-06-16T06:44:04,42.805,6.029,CST-1368DR,9033,12639,15528,0.023,551
2019-06-16T06:47:05,42.805,6.029,CST-1368DR,9033,12640,15529,0.022,551
2019-06-16T06:50:07,42.805,6.029,CST-1368DR,9033,12641,15530,0.022,551
2019-06-16T06:53:09,42.805,6.029,CST-1368DR,9033,12640,15528,0.023,551
2019-06-16T06:56:10,42.805,6.029,CST-1368DR,9033,12637,15525,0.023,551
2019-06-16T06:59:12,42.805,6.029,CST-1368DR,9033,12640,15529,0.022,551
2019-06-16T07:02:14,42.805,6.029,CST-1368DR,9033,12639,15528,0.023,550
2019-06-16T07:05:15,42.805,6.029,CST-1368DR,9033,12640,15529,0.022,551
2019-06-16T07:08:17,42.805,6.029,CST-1368DR,9033,12640,15529,0.022,550
2019-06-16T07:11:19,42.805,6.029,CST-1368DR,9033,12637,15525,0.023,551
2019-06-16T07:14:20,42.805,6.029,CST-1368DR,9033,12637,15525,0.023,551
2019-06-16T07:17:22,42.805,6.029,CST-1368DR,9033,12640,15529,0.022,551
2019-06-16T07:20:24,42.805,6.029,CST-1368DR,9033,12640,15529,0.022,551
2019-06-16T07:23:25,42.805,6.029,CST-1368DR,9033,12640,15529,0.022,551
2019-06-16T07:26:27,42.805,6.029,CST-1368DR,9032,12639,15529,0.022,551
2019-06-16T07:29:29,42.805,6.029,CST-1368DR,9032,12640,15530,0.022,551
2019-06-16T07:32:30,42.805,6.029,CST-1368DR,9032,12640,15530,0.022,551
2019-06-16T07:35:32,42.805,6.029,CST-1368DR,9032,12640,15530,0.022,551
2019-06-16T07:38:34,42.805,6.029,CST-1368DR,9032,12639,15530,0.022,551
2019-06-16T07:41:35,42.805,6.029,CST-1368DR,9032,12639,15529,0.022,551
2019-06-16T07:44:37,42.805,6.029,CST-1368DR,9032,12639,15529,0.022,551
2019-06-16T07:47:39,42.805,6.029,CST-1368DR,9032,12639,15529,0.022,551
2019-06-16T07:50:40,42.805,6.029,CST-1368DR,9032,12638,15528,0.023,551
2019-06-16T07:53:42,42.805,6.029,CST-1368DR,9032,12639,15529,0.022,551
2019-06-16T07:56:44,42.805,6.029,CST-1368DR,9032,12640,15530,0.022,551
2019-06-16T07:59:45,42.805,6.029,CST-1368DR,9032,12640,15530,0.022,551
2019-06-16T08:02:47,42.805,6.029,CST-1368DR,9032,12639,15529,0.022,551
2019-06-16T08:05:48,42.805,6.029,CST-1368DR,9032,12638,15528,0.023,551
2019-06-16T08:08:50,42.805,6.029,CST-1368DR,9032,12640,15530,0.022,551
2019-06-16T08:11:52,42.805,6.029,CST-1368DR,9032,12636,15526,0.023,551
2019-06-16T08:14:53,42.805,6.029,CST-1368DR,9032,12635,15524,0.024,551
2019-06-16T08:17:55,42.805,6.029,CST-1368DR,9032,12637,15527,0.023,551
2019-06-16T08:20:57,42.805,6.029,CST-1368DR,9032,12638,15528,0.023,551
2019-06-16T08:23:58,42.805,6.029,CST-1368DR,9032,12640,15530,0.022,551
2019-06-16T08:27:00,42.805,6.029,CST-1368DR,9032,12639,15530,0.022,551
2019-06-16T08:30:02,42.805,6.029,CST-1368DR,9032,12639,15529,0.022,551
2019-06-16T08:33:03,42.805,6.029,CST-1368DR,9032,12637,15527,0.023,551
2019-06-16T08:36:05,42.805,6.029,CST-1368DR,9032,12639,15529,0.022,551
2019-06-16T08:39:07,42.805,6.029,CST-1368DR,9032,12638,15528,0.023,551
2019-06-16T08:42:08,42.805,6.029,CST-1368DR,9032,12638,15528,0.023,551
2019-06-16T08:45:10,42.805,6.029,CST-1368DR,9032,12640,15530,0.022,551
2019-06-16T08:48:12,42.805,6.029,CST-1368DR,9032,12638,15528,0.023,551
2019-06-16T08:51:13,42.805,6.029,CST-1368DR,9031,12638,15530,0.022,551
2019-06-16T08:54:15,42.805,6.029,CST-1368DR,9032,12637,15526,0.023,551
2019-06-16T08:57:17,42.805,6.029,CST-1368DR,9031,12639,15531,0.022,551
2019-06-16T09:00:18,42.805,6.029,CST-1368DR,9031,12638,15529,0.022,551
2019-06-16T09:03:20,42.805,6.029,CST-1368DR,9032,12638,15528,0.023,551
2019-06-16T09:06:22,42.805,6.029,CST-1368DR,9031,12637,15528,0.023,551
2019-06-16T09:09:23,42.805,6.029,CST-1368DR,9032,12633,15522,0.024,551
2019-06-16T09:12:25,42.805,6.029,CST-1368DR,9031,12638,15530,0.022,551
2019-06-16T09:15:27,42.805,6.029,CST-1368DR,9031,12639,15530,0.022,551
2019-06-16T09:18:28,42.805,6.029,CST-1368DR,9032,12638,15528,0.023,551
2019-06-16T09:21:30,42.805,6.029,CST-1368DR,9031,12636,15527,0.023,551
2019-06-16T09:24:32,42.805,6.029,CST-1368DR,9031,12638,15530,0.022,551
2019-06-16T09:27:33,42.805,6.029,CST-1368DR,9031,12634,15525,0.023,550
2019-06-16T09:30:35,42.805,6.029,CST-1368DR,9031,12637,15529,0.022,551
2019-06-16T09:33:37,42.805,6.029,CST-1368DR,9031,12637,15528,0.023,551
2019-06-16T09:36:39,42.805,6.029,CST-1368DR,9031,12638,15530,0.022,551
2019-06-16T09:39:41,42.805,6.029,CST-1368DR,9031,12637,15528,0.023,551
2019-06-16T09:42:42,42.805,6.029,CST-1368DR,9031,12639,15531,0.022,551
2019-06-16T09:45:44,42.805,6.029,CST-1368DR,9031,12637,15529,0.022,551
2019-06-16T09:48:46,42.805,6.029,CST-1368DR,9031,12638,15530,0.022,551
2019-06-16T09:51:47,42.805,6.029,CST-1368DR,9031,12638,15529,0.022,551
2019-06-16T09:54:49,42.805,6.029,CST-1368DR,9031,12639,15530,0.022,551
2019-06-16T09:57:51,42.805,6.029,CST-1368DR,9031,12638,15530,0.022,551
2019-06-16T10:00:52,42.805,6.029,CST-1368DR,9031,12637,15529,0.022,551
2019-06-16T10:03:54,42.805,6.029,CST-1368DR,9031,12638,15529,0.022,551
2019-06-16T10:06:56,42.805,6.029,CST-1368DR,9031,12637,15528,0.023,551
2019-06-16T10:09:58,42.805,6.029,CST-1368DR,9031,12637,15528,0.023,551
2019-06-16T10:12:59,42.805,6.029,CST-1368DR,9031,12636,15527,0.023,551
2019-06-16T10:16:01,42.805,6.029,CST-1368DR,9031,12638,15529,0.022,550
2019-06-16T10:19:02,42.805,6.029,CST-1368DR,9031,12637,15528,0.023,550
2019-06-16T10:22:04,42.805,6.029,CST-1368DR,9031,12637,15528,0.023,551
2019-06-16T10:25:06,42.805,6.029,CST-1368DR,9031,12637,15528,0.023,551
2019-06-16T10:28:07,42.805,6.029,CST-1368DR,9031,12637,15528,0.023,551
2019-06-16T10:31:09,42.805,6.029,CST-1368DR,9031,12637,15529,0.022,551
2019-06-16T10:34:11,42.805,6.029,CST-1368DR,9031,12637,15528,0.023,551
2019-06-16T10:37:12,42.805,6.029,CST-1368DR,9031,12637,15528,0.023,551
2019-06-16T10:40:14,42.805,6.029,CST-1368DR,9031,12638,15530,0.022,551
2019-06-16T10:43:16,42.805,6.029,CST-1368DR,9031,12638,15530,0.022,551
2019-06-16T10:46:17,42.805,6.029,CST-1368DR,9031,12637,15528,0.023,551
2019-06-16T10:49:19,42.805,6.029,CST-1368DR,9031,12637,15528,0.023,551
2019-06-16T10:52:21,42.805,6.029,CST-1368DR,9031,12637,15529,0.022,551
2019-06-16T10:55:22,42.805,6.029,CST-1368DR,9030,12638,15531,0.022,551
2019-06-16T10:58:24,42.805,6.029,CST-1368DR,9031,12638,15529,0.022,551
2019-06-16T11:01:26,42.805,6.029,CST-1368DR,9030,12637,15530,0.022,551
2019-06-16T11:04:27,42.805,6.029,CST-1368DR,9031,12637,15529,0.022,551
2019-06-16T11:07:29,42.805,6.029,CST-1368DR,9030,12638,15531,0.022,551
2019-06-16T11:10:31,42.805,6.029,CST-1368DR,9031,12637,15529,0.022,550
2019-06-16T11:13:32,42.805,6.029,CST-1368DR,9030,12637,15530,0.022,550
2019-06-16T11:16:34,42.805,6.029,CST-1368DR,9030,12637,15530,0.022,551
2019-06-16T11:19:36,42.805,6.029,CST-1368DR,9030,12638,15531,0.022,551
2019-06-16T11:22:37,42.805,6.029,CST-1368DR,9030,12636,15528,0.023,551
2019-06-16T11:25:39,42.805,6.029,CST-1368DR,9030,12637,15530,0.022,551
2019-06-16T11:28:40,42.805,6.029,CST-1368DR,9030,12636,15528,0.023,551
2019-06-16T11:31:42,42.805,6.029,CST-1368DR,9030,12636,15528,0.023,551
2019-06-16T11:34:44,42.805,6.029,CST-1368DR,9030,12637,15530,0.022,551
2019-06-16T11:37:45,42.805,6.029,CST-1368DR,9030,12637,15530,0.022,551
2019-06-16T11:40:47,42.805,6.029,CST-1368DR,9030,12637,15530,0.022,551
2019-06-16T11:43:49,42.805,6.029,CST-1368DR,9030,12637,15529,0.022,551
2019-06-16T11:46:50,42.805,6.029,CST-1368DR,9030,12637,15530,0.022,551
2019-06-16T11:49:52,42.805,6.029,CST-1368DR,9030,12638,15531,0.022,551
2019-06-16T11:52:54,42.805,6.029,CST-1368DR,9030,12636,15529,0.022,551
2019-06-16T11:55:55,42.805,6.029,CST-1368DR,9030,12637,15530,0.022,551
2019-06-16T11:58:57,42.805,6.029,CST-1368DR,9030,12637,15530,0.022,551
2019-06-16T12:01:59,42.805,6.029,CST-1368DR,9030,12638,15531,0.022,551
2019-06-16T12:05:00,42.805,6.029,CST-1368DR,9030,12637,15530,0.022,550
2019-06-16T12:08:02,42.805,6.029,CST-1368DR,9030,12637,15530,0.022,551
2019-06-16T12:11:03,42.805,6.029,CST-1368DR,9030,12634,15526,0.023,551
2019-06-16T12:14:05,42.805,6.029,CST-1368DR,9030,12636,15529,0.022,551
2019-06-16T12:17:07,42.805,6.029,CST-1368DR,9030,12637,15530,0.022,550
2019-06-16T12:20:08,42.805,6.029,CST-1368DR,9030,12635,15527,0.023,551
2019-06-16T12:23:10,42.805,6.029,CST-1368DR,9030,12636,15529,0.022,551
2019-06-16T12:26:12,42.805,6.029,CST-1368DR,9030,12636,15529,0.022,551
2019-06-16T12:29:13,42.805,6.029,CST-1368DR,9030,12637,15529,0.022,551
2019-06-16T12:32:15,42.805,6.029,CST-1368DR,9030,12637,15530,0.022,551
2019-06-16T12:35:17,42.805,6.029,CST-1368DR,9030,12635,15528,0.023,550
2019-06-16T12:38:18,42.805,6.029,CST-1368DR,9030,12636,15528,0.023,551
2019-06-16T12:41:20,42.805,6.029,CST-1368DR,9030,12634,15526,0.023,550
2019-06-16T12:44:22,42.805,6.029,CST-1368DR,9030,12634,15526,0.023,551
2019-06-16T12:47:23,42.805,6.029,CST-1368DR,9030,12634,15526,0.023,551
2019-06-16T12:50:25,42.805,6.029,CST-1368DR,9030,12636,15529,0.022,551
2019-06-16T12:53:27,42.805,6.029,CST-1368DR,9030,12636,15529,0.022,551
2019-06-16T12:56:28,42.805,6.029,CST-1368DR,9029,12636,15530,0.022,551
2019-06-16T12:59:30,42.805,6.029,CST-1368DR,9029,12636,15530,0.022,551
2019-06-16T13:02:32,42.805,6.029,CST-1368DR,9029,12636,15530,0.022,551
2019-06-16T13:05:33,42.805,6.029,CST-1368DR,9029,12635,15529,0.022,551
2019-06-16T13:08:35,42.805,6.029,CST-1368DR,9029,12636,15530,0.022,551
2019-06-16T13:11:37,42.805,6.029,CST-1368DR,9029,12636,15530,0.022,551
2019-06-16T13:14:38,42.805,6.029,CST-1368DR,9029,12636,15530,0.022,551
2019-06-16T13:17:40,42.805,6.029,CST-1368DR,9029,12636,15530,0.022,551
2019-06-16T13:20:42,42.805,6.029,CST-1368DR,9029,12634,15527,0.023,551
2019-06-16T13:23:43,42.805,6.029,CST-1368DR,9029,12636,15530,0.022,551
2019-06-16T13:26:45,42.805,6.029,CST-1368DR,9029,12637,15531,0.022,550
2019-06-16T13:29:46,42.805,6.029,CST-1368DR,9029,12636,15531,0.022,551
2019-06-16T13:32:48,42.805,6.029,CST-1368DR,9029,12636,15530,0.022,551
2019-06-16T13:35:50,42.805,6.029,CST-1368DR,9029,12635,15529,0.022,551
2019-06-16T13:38:51,42.805,6.029,CST-1368DR,9029,12636,15530,0.022,551
2019-06-16T13:41:53,42.805,6.029,CST-1368DR,9029,12633,15527,0.023,551
2019-06-16T13:44:55,42.805,6.029,CST-1368DR,9029,12635,15529,0.022,550
2019-06-16T13:47:57,42.805,6.029,CST-1368DR,9029,12631,15524,0.024,551
2019-06-16T13:50:58,42.805,6.029,CST-1368DR,9029,12636,15530,0.022,551
2019-06-16T13:54:00,42.805,6.029,CST-1368DR,9029,12636,15530,0.022,551
2019-06-16T13:57:01,42.805,6.029,CST-1368DR,9029,12635,15529,0.022,551
2019-06-16T14:00:03,42.805,6.029,CST-1368DR,9029,12636,15530,0.022,551
2019-06-16T14:03:05,42.805,6.029,CST-1368DR,9029,12636,15530,0.022,551
2019-06-16T14:06:06,42.805,6.029,CST-1368DR,9029,12635,15529,0.022,551
2019-06-16T14:09:08,42.805,6.029,CST-1368DR,9029,12636,15530,0.022,551
2019-06-16T14:12:10,42.805,6.029,CST-1368DR,9029,12635,15529,0.022,551
2019-06-16T14:15:11,42.805,6.029,CST-1368DR,9029,12634,15528,0.023,551
2019-06-16T14:18:13,42.805,6.029,CST-1368DR,9029,12635,15529,0.022,551
2019-06-16T14:21:15,42.805,6.029,CST-1368DR,9029,12635,15528,0.023,551
2019-06-16T14:24:16,42.805,6.029,CST-1368DR,9029,12632,15525,0.023,551
2019-06-16T14:27:18,42.805,6.029,CST-1368DR,9029,12635,15529,0.022,551
2019-06-16T14:30:20,42.805,6.029,CST-1368DR,9029,12634,15528,0.023,551
2019-06-16T14:33:21,42.805,6.029,CST-1368DR,9028,12635,15530,0.022,551
2019-06-16T14:36:23,42.805,6.029,CST-1368DR,9028,12636,15532,0.022,551
2019-06-16T14:39:25,42.805,6.029,CST-1368DR,9028,12634,15530,0.022,551
2019-06-16T14:42:26,42.805,6.029,CST-1368DR,9028,12633,15529,0.022,551
2019-06-16T14:45:28,42.805,6.029,CST-1368DR,9028,12636,15531,0.022,551
2019-06-16T14:48:30,42.805,6.029,CST-1368DR,9028,12634,15529,0.022,551
2019-06-16T14:51:31,42.805,6.029,CST-1368DR,9028,12635,15530,0.022,551
2019-06-16T14:54:33,42.805,6.029,CST-1368DR,9028,12636,15532,0.022,551
2019-06-16T14:57:35,42.805,6.029,CST-1368DR,9028,12636,15531,0.022,551
2019-06-16T15:00:36,42.805,6.029,CST-1368DR,9028,12634,15529,0.022,551
2019-06-16T15:03:38,42.805,6.029,CST-1368DR,9028,12636,15531,0.022,551
